TimeCDT,TemperatureF,Dew PointF,Humidity,Sea Level PressureIn,VisibilityMPH,Wind Direction,Wind SpeedMPH,Gust SpeedMPH,PrecipitationIn,Events,Conditions,WindDirDegrees,DateUTC
12:54 AM,55.0,52.0,89,29.96,7.0,Calm,Calm,-,N/A,,Overcast,0,2013-04-29 05:54:00
1:54 AM,55.9,52.0,87,29.95,7.0,Calm,Calm,-,N/A,,Overcast,0,2013-04-29 06:54:00
2:44 AM,51.8,50.0,94,29.95,1.8,Calm,Calm,-,N/A,,Mostly Cloudy,0,2013-04-29 07:44:00
2:54 AM,51.1,48.9,92,29.95,2.0,Calm,Calm,-,N/A,,Overcast,0,2013-04-29 07:54:00
3:04 AM,51.8,50.0,94,29.96,4.0,Calm,Calm,-,N/A,,Overcast,0,2013-04-29 08:04:00
3:54 AM,54.0,51.1,90,29.96,5.0,Calm,Calm,-,N/A,,Overcast,0,2013-04-29 08:54:00
4:54 AM,54.0,52.0,93,29.97,4.0,Calm,Calm,-,N/A,,Overcast,0,2013-04-29 09:54:00
5:54 AM,54.0,51.1,90,29.99,4.0,Calm,Calm,-,N/A,,Overcast,0,2013-04-29 10:54:00
6:54 AM,55.9,52.0,87,30.00,5.0,Calm,Calm,-,N/A,,Overcast,0,2013-04-29 11:54:00
7:54 AM,59.0,52.0,78,30.01,7.0,SSW,8.1,-,N/A,,Overcast,210,2013-04-29 12:54:00
8:54 AM,61.0,52.0,72,30.01,10.0,SW,5.8,-,N/A,,Clear,220,2013-04-29 13:54:00
9:54 AM,64.0,52.0,65,30.01,10.0,SSW,8.1,-,N/A,,Clear,210,2013-04-29 14:54:00
10:54 AM,64.9,51.1,61,30.01,10.0,SW,8.1,-,N/A,,Mostly Cloudy,230,2013-04-29 15:54:00
11:54 AM,68.0,52.0,56,30.00,10.0,Variable,6.9,-,N/A,,Mostly Cloudy,0,2013-04-29 16:54:00
12:54 PM,70.0,51.1,51,29.98,10.0,SSW,8.1,-,N/A,,Mostly Cloudy,210,2013-04-29 17:54:00
1:54 PM,71.1,52.0,51,29.96,10.0,South,9.2,-,N/A,,Partly Cloudy,170,2013-04-29 18:54:00
2:54 PM,72.0,50.0,46,29.95,10.0,Variable,3.5,-,N/A,,Clear,0,2013-04-29 19:54:00
3:54 PM,73.0,48.9,42,29.92,10.0,South,8.1,-,N/A,,Clear,170,2013-04-29 20:54:00
4:54 PM,72.0,48.9,44,29.91,10.0,SSW,5.8,-,N/A,,Clear,210,2013-04-29 21:54:00
5:54 PM,72.0,51.1,48,29.91,10.0,SSE,8.1,-,N/A,,Clear,150,2013-04-29 22:54:00
6:54 PM,70.0,50.0,49,29.91,10.0,SSE,6.9,-,N/A,,Clear,150,2013-04-29 23:54:00
7:54 PM,66.9,48.9,52,29.91,10.0,SE,4.6,-,N/A,,Clear,130,2013-04-30 00:54:00
8:54 PM,64.0,50.0,60,29.91,10.0,SE,3.5,-,N/A,,Clear,130,2013-04-30 01:54:00
9:54 PM,64.0,50.0,60,29.92,10.0,SE,5.8,-,N/A,,Clear,140,2013-04-30 02:54:00
10:54 PM,62.1,50.0,65,29.92,10.0,SE,4.6,-,N/A,,Clear,130,2013-04-30 03:54:00
11:54 PM,60.1,51.1,72,29.93,10.0,SSE,5.8,-,N/A,,Clear,150,2013-04-30 04:54:00